x

South Uist Range (03023) Weather Station

6:00pm - Sat 25th Oct 2014 All times are BST. 1 hours from GMT.

  • Wind
    38mph, 61mph gusts
  • 空気 Temp 52°f
  • Sea Pressure 995mb
  • South Uist Range
  • South Uist Range

More Historic Weather Station data

Upgrade to MSW Pro to gain access to the past 30 days of data for over 8000 Wavebouys and Weather Stations around the globe.

Join Pro

Comparision Forecast

View Surf forecast
   
Sat 10/25 6:00pm 38 61 mph 995mb 52f
5:00pm 40 60 mph 995mb 52f
4:00pm 47 64 mph 995mb 49f
3:00pm 46 62 mph 995mb 53f
2:00pm 39 56 mph 995mb 54f
1:00pm 39 62 mph 995mb 52f
12:00pm 37 51 mph 996mb 53f
11:00am 32 44 mph 996mb 52f
10:00am 32 49 mph 996mb 51f
9:00am 33 47 mph 995mb 52f
8:00am 37 47 mph 995mb 51f
7:00am 33 46 mph 994mb 51f
6:00am 37 49 mph 995mb 51f
5:00am 34 44 mph 996mb 51f
4:00am 33 47 mph 997mb 51f
3:00am 29 40 mph 998mb 50f
2:00am 24 43 mph 999mb 49f
1:00am 26 39 mph 999mb 51f
12:00am 28 36 mph 1000mb 50f
Fri 10/24 11:00pm 26 44 mph 1000mb 50f
10:00pm 26 38 mph 1000mb 50f
9:00pm 25 44 mph 1000mb 48f
8:00pm 22 44 mph 1000mb 49f
7:00pm 26 37 mph 999mb 51f
6:00pm 30 38 mph 999mb 51f
5:00pm 29 38 mph 999mb 51f
4:00pm 32 39 mph 999mb 52f
3:00pm 28 38 mph 999mb 52f
2:00pm 24 38 mph 1000mb 49f
1:00pm 29 39 mph 1000mb 52f
12:00pm 28 37 mph 1001mb 51f
11:00am 23 38 mph 1001mb 50f
10:00am 18 38 mph 1001mb 48f
9:00am 28 38 mph 1001mb 47f
8:00am 26 39 mph 1001mb 49f
7:00am 28 38 mph 1001mb 49f
6:00am 29 41 mph 1001mb 50f
5:00am 24 45 mph 1001mb 49f
4:00am 29 38 mph 1002mb 50f
3:00am 26 38 mph 1002mb 50f
2:00am 28 44 mph 1002mb 47f
1:00am 24 34 mph 1002mb 49f
12:00am 28 37 mph 1002mb 49f
Thu 10/23 11:00pm 26 38 mph 1002mb 50f
10:00pm 25 37 mph 1001mb 50f
9:00pm 30 39 mph 1001mb 51f
8:00pm 31 40 mph 1000mb 51f
7:00pm 26 45 mph 999mb 51f
6:00pm 24 44 mph 999mb 51f
5:00pm 26 36 mph 999mb 53f
4:00pm 26 43 mph 1000mb 52f
3:00pm 24 31 mph 1000mb 55f
2:00pm 22 30 mph 1001mb 53f
1:00pm 23 31 mph 1001mb 54f
12:00pm 22 31 mph 1002mb 54f
11:00am 22 29 mph 1002mb 54f
10:00am 19 30 mph 1003mb 53f
9:00am 18 30 mph 1003mb 52f
8:00am 16 29 mph 1003mb 53f
7:00am 18 36 mph 1004mb 53f
6:00am 19 31 mph 1004mb 53f
5:00am 22 29 mph 1004mb 53f
4:00am 22 36 mph 1004mb 53f
3:00am 23 32 mph 1005mb 53f
2:00am 24 32 mph 1005mb 52f
1:00am 23 40 mph 1005mb 53f
12:00am 32 41 mph 1005mb 54f
Wed 10/22 11:00pm 30 44 mph 1005mb 54f
10:00pm 30 40 mph 1005mb 54f
9:00pm 30 39 mph 1006mb 54f
8:00pm 30 41 mph 1006mb 54f
7:00pm 30 40 mph 1006mb 54f
6:00pm 29 38 mph 1007mb 53f
5:00pm 30 40 mph 1007mb 53f
4:00pm 29 40 mph 1008mb 54f
3:00pm 28 43 mph 1009mb 53f
2:00pm 32 45 mph 1009mb 54f
1:00pm 31 45 mph 1010mb 54f
12:00pm 32 43 mph 1010mb 54f
11:00am 30 38 mph 1011mb 53f
10:00am 29 37 mph 1011mb 53f
9:00am 26 34 mph 1011mb 52f
8:00am 23 31 mph 1013mb 52f
7:00am 22 31 mph 1013mb 51f
6:00am 21
mph
1014mb 51f
5:00am 22
mph
1015mb 52f
4:00am 15 30 mph 1015mb 51f
3:00am 23 29 mph 1016mb 51f
2:00am 22 32 mph 1016mb 51f
1:00am 24 34 mph 1015mb 51f
12:00am 26 39 mph 1015mb 50f
Tue 10/21 11:00pm 26 44 mph 1014mb 49f
10:00pm 26 47 mph 1013mb 50f
9:00pm 28 46 mph 1012mb 47f
8:00pm 30 43 mph 1011mb 45f